This is the latest recevied weather packets stored in our database for station/object N5SNT-2. If no packets are shown the sender has not sent any weather packets the latest 10 day(s).
| Time | Temp. | Humidity | Pressure | Rain* | Wind** | Luminosity | Snow |
|---|---|---|---|---|---|---|---|
| 1777771343 | 20° C | 54% | 1022 hPa | 0 mm | - | 1 W/m² | - |
| 1777771043 | 20° C | 53% | 1021 hPa | 0 mm | - | 1 W/m² | - |
| 1777770743 | 20.56° C | 52% | 1022 hPa | 0 mm | - | 3 W/m² | - |
| 1777770443 | 20.56° C | 52% | 1022 hPa | 0 mm | - | 6 W/m² | - |
| 1777770143 | 21.11° C | 51% | 1022 hPa | 0 mm | - | 10 W/m² | - |
| 1777769843 | 21.11° C | 50% | 1021 hPa | 0 mm | - | 15 W/m² | - |
| 1777769543 | 21.11° C | 50% | 1021 hPa | 0 mm | - | 19 W/m² | - |
| 1777769243 | 21.67° C | 50% | 1021 hPa | 0 mm | - | 23 W/m² | - |
| 1777768944 | 21.67° C | 49% | 1021 hPa | 0 mm | - | 28 W/m² | - |
| 1777768643 | 21.67° C | 48% | 1021 hPa | 0 mm | - | 34 W/m² | - |
| 1777768343 | 22.22° C | 48% | 1022 hPa | 0 mm | - | 40 W/m² | - |
| 1777768044 | 22.22° C | 47% | 1022 hPa | 0 mm | - | 47 W/m² | - |
| 1777767743 | 22.22° C | 47% | 1022 hPa | 0 mm | - | 53 W/m² | - |
| 1777767443 | 22.22° C | 50% | 1022 hPa | 0 mm | - | 61 W/m² | - |
| 1777767143 | 22.22° C | 46% | 1021 hPa | 0 mm | - | 70 W/m² | - |
| 1777766843 | 22.22° C | 44% | 1022 hPa | 0 mm | - | 80 W/m² | - |
| 1777766543 | 22.78° C | 47% | 1021 hPa | 0 mm | - | 92 W/m² | - |
| 1777766243 | 22.22° C | 46% | 1021 hPa | 0 mm | - | 104 W/m² | - |
| 1777765943 | 22.78° C | 45% | 1021 hPa | 0 mm | - | 118 W/m² | - |
| 1777765648 | 22.78° C | 45% | 1021 hPa | 0 mm | - | 131 W/m² | - |
| 1777765343 | 22.78° C | 46% | 1021 hPa | 0 mm | - | 145 W/m² | - |
| 1777765043 | 22.78° C | 44% | 1022 hPa | 0 mm | - | 158 W/m² | - |
| 1777764744 | 22.78° C | 47% | 1021 hPa | 0 mm | - | 173 W/m² | - |
| 1777764443 | 22.78° C | 45% | 1021 hPa | 0 mm | - | 190 W/m² | - |
| 1777764143 | 22.78° C | 44% | 1021 hPa | 0 mm | - | 206 W/m² | - |
* Rain latest hour (hover to see other rain measurements)
** Current wind speed in m/s (hover to see current wind gust speed)